| time (UTC) | temp F | wind direction | speed MPH | gust MPH | rain 1hr in | rain 24hr in | rain mn in | humidity % | barometer mb |
| 20260906222203 | 63 | 308 | 2.0 | 5.0 | 0.00 | 0.01 | 0.01 | 72 | 1011.9 |
| 20260906221203 | 64 | 308 | 0.0 | 3.0 | 0.00 | 0.01 | 0.01 | 71 | 1011.8 |
| 20260906220202 | 64 | 308 | 1.0 | 3.0 | 0.00 | 0.01 | 0.01 | 72 | 1011.8 |
| 20260906215203 | 64 | 308 | 1.0 | 4.0 | 0.00 | 0.01 | 0.01 | 73 | 1011.8 |
| 20260906214203 | 64 | 308 | 1.0 | 6.0 | 0.00 | 0.01 | 0.01 | 72 | 1011.6 |
| 20260906213202 | 64 | 307 | 0.0 | 4.0 | 0.00 | 0.01 | 0.01 | 71 | 1011.6 |
| 20260906212204 | 65 | 308 | 3.0 | 5.0 | 0.00 | 0.01 | 0.01 | 69 | 1011.6 |
| 20260906211202 | 65 | 307 | 1.0 | 2.0 | 0.00 | 0.01 | 0.01 | 70 | 1011.5 |
| 20260906210203 | 66 | 307 | 1.0 | 5.0 | 0.00 | 0.01 | 0.01 | 67 | 1011.5 |
| 20260906205204 | 66 | 310 | 3.0 | 8.0 | 0.00 | 0.01 | 0.01 | 68 | 1011.5 |
| 20260906204203 | 65 | 301 | 1.0 | 7.0 | 0.00 | 0.01 | 0.01 | 70 | 1011.5 |
| 20260906203203 | 65 | 295 | 5.0 | 10.0 | 0.00 | 0.01 | 0.01 | 71 | 1011.5 |
| 20260906202203 | 64 | 321 | 0.0 | 4.0 | 0.00 | 0.01 | 0.01 | 75 | 1011.6 |
| 20260906201203 | 64 | 47 | 1.0 | 10.0 | 0.00 | 0.01 | 0.01 | 70 | 1011.8 |
| 20260906200203 | 66 | 38 | 3.0 | 5.0 | 0.00 | 0.01 | 0.01 | 65 | 1011.8 |
| 20260906195203 | 66 | 299 | 1.0 | 5.0 | 0.00 | 0.01 | 0.01 | 66 | 1011.6 |
| 20260906194203 | 65 | 277 | 0.0 | 3.0 | 0.00 | 0.01 | 0.01 | 75 | 1011.5 |
| 20260906193202 | 63 | 277 | 0.0 | 2.0 | 0.00 | 0.01 | 0.01 | 76 | 1011.5 |
| 20260906192224 | 62 | 277 | 0.0 | 3.0 | 0.00 | 0.01 | 0.01 | 77 | 1011.5 |
| 20260906191224 | 62 | 277 | 1.0 | 2.0 | 0.00 | 0.01 | 0.01 | 79 | 1011.5 |
| 20260906190204 | 61 | 277 | 1.0 | 5.0 | 0.00 | 0.01 | 0.01 | 78 | 1011.7 |
| 20260906185203 | 61 | 265 | 2.0 | 4.0 | 0.01 | 0.01 | 0.01 | 84 | 1011.9 |
| 20260906184203 | 60 | 50 | 2.0 | 4.0 | 0.01 | 0.01 | 0.01 | 84 | 1011.8 |
| 20260906183202 | 60 | 54 | 3.0 | 6.0 | 0.01 | 0.01 | 0.01 | 79 | 1012.0 |
| 20260906182203 | 60 | 48 | 1.0 | 4.0 | 0.00 | 0.00 | 0.00 | 81 | 1012.3 |
| 20260906181203 | 59 | 71 | 2.0 | 6.0 | 0.00 | 0.00 | 0.00 | 82 | 1012.0 |
| 20260906180223 | 58 | 77 | 3.0 | 11.0 | 0.00 | 0.00 | 0.00 | 81 | 1012.0 |
| 20260906175203 | 61 | 51 | 7.0 | 16.0 | 0.00 | 0.00 | 0.00 | 73 | 1012.2 |
| 20260906174203 | 70 | 52 | 5.0 | 14.0 | 0.00 | 0.00 | 0.00 | 46 | 1011.7 |
| 20260906173203 | 71 | 296 | 5.0 | 12.0 | 0.00 | 0.00 | 0.00 | 45 | 1011.4 |
| 20260906172203 | 70 | 16 | 3.0 | 12.0 | 0.00 | 0.00 | 0.00 | 45 | 1011.5 |
| 20260906171202 | 72 | 322 | 2.0 | 8.0 | 0.00 | 0.00 | 0.00 | 46 | 1011.6 |
| 20260906170203 | 70 | 9 | 3.0 | 13.0 | 0.00 | 0.00 | 0.00 | 43 | 1011.7 |
| 20260906165224 | 70 | 9 | 3.0 | 12.0 | 0.00 | 0.00 | 0.00 | 44 | 1012.0 |
| 20260906164203 | 69 | 349 | 3.0 | 11.0 | 0.00 | 0.00 | 0.00 | 45 | 1012.0 |
| 20260906163203 | 70 | 343 | 5.0 | 18.0 | 0.00 | 0.00 | 0.00 | 46 | 1012.1 |
| 20260906162203 | 69 | 27 | 3.0 | 8.0 | 0.00 | 0.00 | 0.00 | 48 | 1012.1 |
| 20260906161202 | 69 | 58 | 4.0 | 11.0 | 0.00 | 0.00 | 0.00 | 47 | 1012.2 |
| 20260906160203 | 69 | 9 | 5.0 | 15.0 | 0.00 | 0.00 | 0.00 | 48 | 1012.3 |
| 20260906155203 | 69 | 120 | 2.0 | 9.0 | 0.00 | 0.00 | 0.00 | 47 | 1012.4 |
| 20260906154203 | 69 | 53 | 3.0 | 10.0 | 0.00 | 0.00 | 0.00 | 48 | 1012.5 |
| 20260906153203 | 68 | 3 | 2.0 | 11.0 | 0.00 | 0.00 | 0.00 | 49 | 1012.6 |
| 20260906152224 | 68 | 15 | 3.0 | 8.0 | 0.00 | 0.00 | 0.00 | 48 | 1012.6 |
| 20260906151203 | 67 | 64 | 3.0 | 9.0 | 0.00 | 0.00 | 0.00 | 48 | 1012.7 |
| 20260906150202 | 67 | 310 | 6.0 | 18.0 | 0.00 | 0.00 | 0.00 | 49 | 1012.9 |
| 20260906145203 | 66 | 68 | 5.0 | 11.0 | 0.00 | 0.00 | 0.00 | 51 | 1013.0 |
| 20260906144203 | 66 | 25 | 4.0 | 13.0 | 0.00 | 0.00 | 0.00 | 52 | 1013.1 |
| 20260906143202 | 66 | 335 | 4.0 | 11.0 | 0.00 | 0.00 | 0.00 | 53 | 1013.1 |
| 20260906142203 | 65 | 7 | 2.0 | 8.0 | 0.00 | 0.00 | 0.00 | 55 | 1012.9 |
| 20260906141203 | 65 | 332 | 4.0 | 13.0 | 0.00 | 0.00 | 0.00 | 58 | 1013.0 |
| 20260906140202 | 64 | 61 | 3.0 | 8.0 | 0.00 | 0.00 | 0.00 | 61 | 1013.0 |
| 20260906135224 | 63 | 346 | 2.0 | 12.0 | 0.00 | 0.00 | 0.00 | 65 | 1013.1 |
| 20260906134203 | 62 | 16 | 4.0 | 14.0 | 0.00 | 0.00 | 0.00 | 66 | 1013.0 |
| 20260906133203 | 61 | 349 | 4.0 | 13.0 | 0.00 | 0.00 | 0.00 | 68 | 1013.1 |
| 20260906132203 | 60 | 39 | 3.0 | 7.0 | 0.00 | 0.00 | 0.00 | 69 | 1013.2 |
| 20260906131203 | 59 | 343 | 3.0 | 10.0 | 0.00 | 0.00 | 0.00 | 71 | 1013.2 |
| 20260906130224 | 59 | 7 | 2.0 | 10.0 | 0.00 | 0.00 | 0.00 | 73 | 1013.3 |
| 20260906125202 | 58 | 325 | 2.0 | 11.0 | 0.00 | 0.00 | 0.00 | 73 | 1013.3 |
| 20260906124203 | 58 | 356 | 3.0 | 10.0 | 0.00 | 0.00 | 0.00 | 74 | 1013.3 |
| 20260906122203 | 58 | 348 | 2.0 | 9.0 | 0.00 | 0.00 | 0.00 | 76 | 1013.2 |
| 20260906121202 | 57 | 306 | 1.0 | 9.0 | 0.00 | 0.00 | 0.00 | 79 | 1013.2 |
| 20260906120203 | 57 | 334 | 2.0 | 8.0 | 0.00 | 0.00 | 0.00 | 79 | 1013.2 |
| 20260906115203 | 57 | 311 | 1.0 | 9.0 | 0.00 | 0.00 | 0.00 | 80 | 1013.1 |
| 20260906114203 | 56 | 327 | 2.0 | 6.0 | 0.00 | 0.00 | 0.00 | 83 | 1013.1 |
| 20260906113203 | 55 | 339 | 1.0 | 6.0 | 0.00 | 0.00 | 0.00 | 84 | 1013.1 |
| 20260906112202 | 55 | 320 | 1.0 | 6.0 | 0.00 | 0.00 | 0.00 | 85 | 1013.0 |
| 20260906111203 | 55 | 320 | 1.0 | 4.0 | 0.00 | 0.00 | 0.00 | 85 | 1012.9 |
| 20260906110202 | 55 | 320 | 2.0 | 5.0 | 0.00 | 0.00 | 0.00 | 85 | 1012.9 |
| 20260906105203 | 55 | 320 | 1.0 | 6.0 | 0.00 | 0.00 | 0.00 | 85 | 1012.9 |
| 20260906104203 | 55 | 320 | 1.0 | 6.0 | 0.00 | 0.00 | 0.00 | 86 | 1012.8 |
| 20260906103202 | 54 | 320 | 1.0 | 5.0 | 0.00 | 0.00 | 0.00 | 87 | 1012.8 |
| 20260906102224 | 54 | 325 | 2.0 | 8.0 | 0.00 | 0.00 | 0.00 | 88 | 1012.8 |
| 20260906101224 | 54 | 324 | 2.0 | 5.0 | 0.00 | 0.00 | 0.00 | 90 | 1012.7 |
| 20260906100224 | 53 | 325 | 0.0 | 2.0 | 0.00 | 0.00 | 0.00 | 90 | 1012.7 |
| 20260906095203 | 53 | 325 | 1.0 | 2.0 | 0.00 | 0.00 | 0.00 | 89 | 1012.7 |
| 20260906094223 | 54 | 325 | 1.0 | 4.0 | 0.00 | 0.00 | 0.00 | 86 | 1012.7 |
| 20260906093203 | 54 | 325 | 1.0 | 8.0 | 0.00 | 0.00 | 0.00 | 86 | 1012.5 |
| 20260906092203 | 54 | 326 | 1.0 | 3.0 | 0.00 | 0.00 | 0.00 | 87 | 1012.4 |
| 20260906091203 | 54 | 326 | 1.0 | 4.0 | 0.00 | 0.00 | 0.00 | 89 | 1012.3 |
| 20260906090203 | 54 | 326 | 1.0 | 3.0 | 0.00 | 0.00 | 0.00 | 90 | 1012.3 |
| 20260906085202 | 54 | 326 | 1.0 | 4.0 | 0.00 | 0.00 | 0.00 | 90 | 1012.3 |
| 20260906084224 | 54 | 326 | 1.0 | 2.0 | 0.00 | 0.00 | 0.00 | 90 | 1012.3 |
| 20260906083203 | 54 | 326 | 1.0 | 4.0 | 0.00 | 0.00 | 0.00 | 89 | 1012.3 |
| 20260906082202 | 55 | 326 | 0.0 | 3.0 | 0.00 | 0.00 | 0.00 | 88 | 1012.2 |
| 20260906081203 | 55 | 326 | 1.0 | 5.0 | 0.00 | 0.00 | 0.00 | 87 | 1012.1 |
| 20260906080203 | 55 | 326 | 0.0 | 6.0 | 0.00 | 0.00 | 0.00 | 88 | 1012.1 |
| 20260906075203 | 55 | 357 | 0.0 | 3.0 | 0.00 | 0.00 | 0.00 | 89 | 1011.9 |
| 20260906074223 | 54 | 357 | 1.0 | 4.0 | 0.00 | 0.00 | 0.00 | 90 | 1011.9 |
| 20260906073203 | 54 | 100 | 0.0 | 3.0 | 0.00 | 0.00 | 0.00 | 92 | 1011.9 |
| 20260906072202 | 54 | 318 | 0.0 | 2.0 | 0.00 | 0.00 | 0.00 | 93 | 1011.7 |
| 20260906071203 | 53 | 318 | 0.0 | 2.0 | 0.00 | 0.00 | 0.00 | 93 | 1011.9 |
| 20260906070202 | 53 | 318 | 0.0 | 1.0 | 0.00 | 0.00 | 0.00 | 92 | 1011.8 |
| 20260906065203 | 54 | 318 | 0.0 | 1.0 | 0.00 | 0.00 | 0.00 | 91 | 1011.8 |
| 20260906064203 | 54 | 17 | 1.0 | 3.0 | 0.00 | 0.00 | 0.00 | 90 | 1011.7 |
| 20260906063203 | 55 | 55 | 0.0 | 1.0 | 0.00 | 0.00 | 0.00 | 89 | 1011.7 |
| 20260906062203 | 55 | 55 | 0.0 | 3.0 | 0.00 | 0.00 | 0.00 | 90 | 1011.6 |
| 20260906061203 | 55 | 55 | 0.0 | 1.0 | 0.00 | 0.00 | 0.00 | 90 | 1011.6 |
| 20260906060203 | 55 | 55 | 0.0 | 1.0 | 0.00 | 0.00 | 0.00 | 90 | 1011.7 |
| 20260906055202 | 55 | 55 | 0.0 | 1.0 | 0.00 | 0.00 | 0.00 | 91 | 1011.7 |
| 20260906054203 | 54 | 55 | 0.0 | 1.0 | 0.00 | 0.00 | 0.00 | 91 | 1011.8 |
| 20260906053202 | 55 | 56 | 1.0 | 3.0 | 0.00 | 0.00 | 0.00 | 91 | 1011.7 |
| 20260906052224 | 55 | 63 | 0.0 | 3.0 | 0.00 | 0.00 | 0.00 | 90 | 1011.7 |
| 20260906051203 | 55 | 63 | 0.0 | 1.0 | 0.00 | 0.00 | 0.00 | 90 | 1011.7 |
| 20260906050202 | 56 | 63 | 0.0 | 2.0 | 0.00 | 0.00 | 0.00 | 89 | 1011.9 |
| 20260906045204 | 56 | 63 | 1.0 | 3.0 | 0.00 | 0.00 | 0.00 | 89 | 1011.8 |
| 20260906044202 | 56 | 65 | 0.0 | 1.0 | 0.00 | 0.00 | 0.00 | 88 | 1011.7 |
| 20260906043203 | 56 | 65 | 0.0 | 1.0 | 0.00 | 0.00 | 0.00 | 88 | 1011.6 |
| 20260906042203 | 56 | 65 | 0.0 | 1.0 | 0.00 | 0.00 | 0.00 | 88 | 1011.6 |
| 20260906041202 | 56 | 65 | 0.0 | 1.0 | 0.00 | 0.00 | 0.00 | 89 | 1011.6 |
| 20260906040203 | 56 | 65 | 0.0 | 1.0 | 0.00 | 0.00 | 0.00 | 88 | 1011.6 |
| 20260906035223 | 57 | 65 | 0.0 | 1.0 | 0.00 | 0.00 | 0.00 | 86 | 1011.6 |
| 20260906034203 | 58 | 65 | 0.0 | 2.0 | 0.00 | 0.00 | 0.00 | 84 | 1011.5 |
| 20260906033203 | 58 | 65 | 0.0 | 2.0 | 0.00 | 0.00 | 0.00 | 85 | 1011.6 |
| 20260906032203 | 57 | 65 | 0.0 | 0.0 | 0.00 | 0.00 | 0.00 | 87 | 1011.7 |
| 20260906031203 | 58 | 65 | 0.0 | 0.0 | 0.00 | 0.00 | 0.00 | 85 | 1011.6 |
| 20260906030202 | 59 | 65 | 0.0 | 1.0 | 0.00 | 0.00 | 0.00 | 83 | 1011.4 |
| 20260906025224 | 60 | 65 | 0.0 | 2.0 | 0.00 | 0.00 | 0.00 | 80 | 1011.5 |
| 20260906024224 | 60 | 65 | 2.0 | 4.0 | 0.00 | 0.00 | 0.00 | 81 | 1011.5 |
| 20260906023225 | 60 | 65 | 1.0 | 2.0 | 0.00 | 0.00 | 0.00 | 81 | 1011.5 |
| 20260906022202 | 61 | 65 | 0.0 | 5.0 | 0.00 | 0.00 | 0.00 | 79 | 1011.4 |
| 20260906021203 | 61 | 65 | 1.0 | 4.0 | 0.00 | 0.00 | 0.00 | 79 | 1011.4 |
| 20260906020203 | 62 | 65 | 1.0 | 3.0 | 0.00 | 0.00 | 0.00 | 78 | 1011.4 |
| 20260906015203 | 62 | 65 | 1.0 | 4.0 | 0.00 | 0.00 | 0.00 | 78 | 1011.4 |
| 20260906014203 | 62 | 65 | 1.0 | 4.0 | 0.00 | 0.00 | 0.00 | 77 | 1011.4 |
| 20260906013202 | 63 | 65 | 1.0 | 4.0 | 0.00 | 0.00 | 0.00 | 76 | 1011.3 |
| 20260906012203 | 63 | 62 | 2.0 | 6.0 | 0.00 | 0.00 | 0.00 | 76 | 1011.4 |
| 20260906011203 | 63 | 61 | 2.0 | 8.0 | 0.00 | 0.00 | 0.00 | 75 | 1011.3 |
| 20260906010202 | 63 | 66 | 2.0 | 4.0 | 0.00 | 0.00 | 0.00 | 75 | 1011.2 |
| 20260906005203 | 63 | 65 | 1.0 | 3.0 | 0.00 | 0.00 | 0.00 | 75 | 1011.2 |
| 20260906004224 | 64 | 65 | 2.0 | 5.0 | 0.00 | 0.00 | 0.00 | 74 | 1011.3 |
| 20260906003203 | 63 | 61 | 2.0 | 4.0 | 0.00 | 0.00 | 0.00 | 75 | 1011.1 |
| 20260906002203 | 64 | 61 | 1.0 | 2.0 | 0.00 | 0.00 | 0.00 | 74 | 1011.0 |
| 20260906001203 | 64 | 61 | 1.0 | 2.0 | 0.00 | 0.00 | 0.00 | 74 | 1011.0 |
| 20260906000223 | 63 | 61 | 0.0 | 1.0 | 0.00 | 0.00 | 0.00 | 78 | 1010.9 |
| 20260905235224 | 63 | 61 | 0.0 | 3.0 | 0.00 | 0.00 | 0.00 | 81 | 1010.9 |
| 20260905234202 | 63 | 61 | 0.0 | 0.0 | 0.00 | 0.00 | 0.00 | 81 | 1010.8 |
| 20260905233204 | 64 | 61 | 0.0 | 0.0 | 0.00 | 0.00 | 0.00 | 79 | 1010.7 |
| 20260905232202 | 64 | 61 | 0.0 | 0.0 | 0.00 | 0.00 | 0.00 | 78 | 1010.7 |
| 20260905231203 | 65 | 61 | 0.0 | 2.0 | 0.00 | 0.00 | 0.00 | 75 | 1010.6 |
| 20260905230203 | 65 | 61 | 0.0 | 4.0 | 0.00 | 0.00 | 0.00 | 74 | 1010.6 |
| 20260905225223 | 66 | 64 | 3.0 | 5.0 | 0.00 | 0.00 | 0.00 | 71 | 1010.6 |
| 20260905224203 | 67 | 64 | 2.0 | 7.0 | 0.00 | 0.00 | 0.00 | 66 | 1010.6 |
| 20260905223224 | 67 | 58 | 3.0 | 9.0 | 0.00 | 0.00 | 0.00 | 66 | 1010.4 |